DW0160 Weather Reports


time (UTC)temp
F
wind
direction
speed
knots
gust
knots
rain 1hr
in
rain 24hr
in
rain mn
in
humidity
%
barometer
mb
20260506001358 66 86 1.7 4.3 0.00 0.00 0.00 51 1014.7
20260506000357 65 336 0.0 2.6 0.00 0.00 0.00 53 1014.8
20260505235357 64 319 2.6 3.5 0.00 0.00 0.00 54 1014.8
20260505234356 64 311 0.0 1.7 0.00 0.00 0.00 54 1015.1
20260505233355 64 62 0.0 1.7 0.00 0.00 0.00 53 1015.3
20260505232355 63 63 0.0 2.6 0.00 0.00 0.00 53 1015.2
20260505231355 63 36 0.0 1.7 0.00 0.00 0.00 55 1015.2
20260505230355 63 25 0.0 1.7 0.00 0.00 0.00 55 1015.3
20260505225355 63 38 1.7 2.6 0.00 0.00 0.00 55 1015.3
20260505223353 62 338 0.9 3.5 0.00 0.00 0.00 56 1015.4
20260505222353 62 334 0.9 2.6 0.00 0.00 0.00 55 1015.5
20260505221352 62 332 0.9 3.5 0.00 0.00 0.00 55 1015.5
20260505220352 62 319 0.0 4.3 0.00 0.00 0.00 55 1015.8
20260505214351 62 5 0.9 4.3 0.00 0.00 0.00 55 1015.7
20260505213350 62 111 2.6 2.6 0.00 0.00 0.00 55 1015.9
20260505212420 62 42 0.0 3.5 0.00 0.00 0.00 56 1015.9
20260505211350 62 5 0.9 1.7 0.00 0.00 0.00 55 1015.9
20260505210349 62 5 0.9 1.7 0.00 0.00 0.00 56 1016.0
20260505203351 61 355 1.7 4.3 0.00 0.00 0.00 56 1016.0
20260505202350 61 253 0.0 3.5 0.00 0.00 0.00 56 1016.0
20260505201349 61 48 1.7 3.5 0.00 0.00 0.00 57 1016.1
20260505200419 61 347 0.9 2.6 0.00 0.00 0.00 57 1016.1
20260505195349 61 94 0.0 3.5 0.00 0.00 0.00 57 1016.2
20260505194349 60 89 1.7 2.6 0.00 0.00 0.00 57 1016.2
20260505193418 60 59 0.0 3.5 0.00 0.00 0.00 58 1016.2
20260505192348 59 350 3.5 3.5 0.00 0.00 0.00 58 1016.3
20260505191347 59 347 1.7 3.5 0.00 0.00 0.00 59 1016.3
20260505190347 59 5 1.7 3.5 0.00 0.00 0.00 59 1016.2
20260505185417 59 5 1.7 3.5 0.00 0.00 0.00 60 1016.2
20260505184416 58 360 2.6 4.3 0.00 0.00 0.00 60 1016.1
20260505183416 58 344 1.7 3.5 0.00 0.00 0.00 59 1016.2
20260505182416 59 355 0.9 4.3 0.00 0.00 0.00 59 1016.2
20260505180415 59 312 0.9 2.6 0.00 0.00 0.00 59 1016.1
20260505175414 59 304 0.0 1.7 0.00 0.00 0.00 59 1016.1
20260505174414 59 111 1.7 3.5 0.00 0.00 0.00 59 1016.0
20260505173413 59 134 0.0 1.7 0.00 0.00 0.00 61 1015.9
20260505172412 58 106 0.0 2.6 0.00 0.00 0.00 62 1015.9
20260505171412 57 108 2.6 3.5 0.00 0.00 0.00 63 1015.9
20260505170412 57 94 0.9 3.5 0.00 0.00 0.00 64 1015.8
20260505160410 55 238 0.0 0.0 0.00 0.00 0.00 68 1015.8
20260505151406 54 229 0.0 0.0 0.00 0.00 0.00 69 1015.7
20260505140401 54 190 2.6 2.6 0.00 0.00 0.00 69 1015.0
20260505124400 54 188 0.0 0.0 0.00 0.00 0.00 68 1014.6
20260505123400 54 188 0.0 0.0 0.00 0.00 0.00 68 1014.7
20260505121359 54 188 0.0 0.0 0.00 0.00 0.00 68 1014.6
20260505120359 54 188 0.0 2.6 0.00 0.00 0.00 68 1014.5
20260505115359 54 222 0.0 3.5 0.00 0.00 0.00 68 1014.6
20260505114358 54 175 0.0 0.0 0.00 0.00 0.00 68 1014.5
20260505113358 54 174 0.0 0.9 0.00 0.00 0.00 68 1014.5
20260505112359 54 171 0.0 1.7 0.00 0.00 0.00 68 1014.5
20260505111357 54 171 0.0 0.9 0.00 0.00 0.00 68 1014.5
20260505110356 54 170 0.0 1.7 0.00 0.00 0.00 68 1014.5
20260505101354 54 167 0.0 2.6 0.00 0.00 0.00 68 1014.3
20260505100353 54 183 0.0 4.3 0.00 0.00 0.00 68 1014.3
20260505094421 54 169 0.0 2.6 0.00 0.00 0.00 68 1014.2
20260505093421 54 174 0.0 3.5 0.00 0.00 0.00 68 1014.0
20260505091350 54 141 1.7 3.5 0.00 0.00 0.00 68 1014.0
20260505090419 54 189 0.9 3.5 0.00 0.00 0.00 68 1014.0
20260505085349 54 163 0.0 4.3 0.00 0.00 0.00 68 1013.9
20260505084348 54 190 2.6 4.3 0.00 0.00 0.00 68 1013.9
20260505083419 54 171 3.5 5.2 0.00 0.00 0.00 68 1014.0
20260505082349 54 190 2.6 5.2 0.00 0.00 0.00 68 1013.8
20260505081417 54 177 0.0 3.5 0.00 0.00 0.00 68 1013.8
20260505080416 54 215 0.9 3.5 0.00 0.00 0.00 68 1013.8
20260505075416 53 184 0.0 3.5 0.00 0.00 0.00 68 1013.7
20260505073415 53 146 0.9 5.2 0.00 0.00 0.00 68 1013.6
20260505072414 53 214 4.3 6.1 0.00 0.00 0.00 68 1013.4
20260505070413 53 163 0.0 3.5 0.00 0.00 0.00 67 1013.4
20260505065413 53 166 1.7 4.3 0.00 0.00 0.00 66 1013.2
20260505064412 53 177 1.7 4.3 0.00 0.00 0.00 65 1013.3
20260505063412 53 184 0.0 4.3 0.00 0.00 0.00 65 1013.1
20260505062411 53 193 0.0 3.5 0.00 0.00 0.00 64 1013.1
20260505060411 54 205 0.0 2.6 0.00 0.00 0.00 63 1013.3
20260505055410 54 204 1.7 2.6 0.00 0.00 0.00 63 1013.2
20260505054409 54 205 0.0 3.5 0.00 0.00 0.00 63 1013.2
20260505053409 55 185 0.0 4.3 0.00 0.00 0.00 63 1013.2
20260505052409 55 171 2.6 5.2 0.00 0.00 0.00 62 1013.2
20260505050407 56 175 0.9 2.6 0.00 0.00 0.00 60 1012.9
20260505041405 58 161 0.0 3.5 0.00 0.00 0.00 58 1012.2
20260505040404 59 110 1.7 2.6 0.00 0.00 0.00 58 1011.9
20260505035403 59 219 0.9 4.3 0.00 0.00 0.00 57 1011.6
20260505034403 60 241 3.5 6.1 0.00 0.00 0.00 57 1011.7
20260505033403 60 254 4.3 10.4 0.00 0.00 0.00 57 1011.5
20260505032403 60 273 4.3 11.3 0.00 0.00 0.00 56 1011.3
20260505031403 61 294 11.3 12.2 0.00 0.00 0.00 55 1010.9
20260505030403 62 263 2.6 10.4 0.00 0.00 0.00 54 1010.8
20260505025402 63 278 7.0 10.4 0.00 0.00 0.00 53 1010.6
20260505024402 65 360 9.6 9.6 0.00 0.00 0.00 51 1010.5
20260505021401 67 275 3.5 11.3 0.00 0.00 0.00 49 1010.5
20260505020402 68 263 5.2 10.4 0.00 0.00 0.00 49 1010.4
20260505015401 68 329 5.2 10.4 0.00 0.00 0.00 48 1010.4
20260505014400 70 296 8.7 10.4 0.00 0.00 0.00 46 1010.4
20260505013359 72 267 6.1 8.7 0.00 0.00 0.00 46 1010.5
20260505012359 72 187 0.9 6.1 0.00 0.00 0.00 48 1010.6
20260505011358 73 212 1.7 7.8 0.00 0.00 0.00 48 1010.6
20260505010357 73 163 1.7 8.7 0.00 0.00 0.00 48 1010.7
20260505005357 72 198 3.5 6.1 0.00 0.00 0.00 48 1010.6
20260505004357 73 196 2.6 6.1 0.00 0.00 0.00 48 1010.9
20260505003357 72 159 3.5 6.1 0.00 0.00 0.00 48 1010.9